This is the latest recevied weather packets stored in our database for station/object N9CQS-13. If no packets are shown the sender has not sent any weather packets the latest 10 day(s).
| Time | Temp. | Humidity | Pressure | Rain* | Wind** | Luminosity | Snow |
|---|---|---|---|---|---|---|---|
| 1777616491 | 10° C | 88% | 1014.7 hPa | 0 mm | - | - | - |
| 1777615891 | 10° C | 86% | 1014.6 hPa | 0 mm | - | - | - |
| 1777615291 | 10° C | 86% | 1014.7 hPa | 0 mm | - | - | - |
| 1777614691 | 10° C | 84% | 1014.7 hPa | 0 mm | - | - | - |
| 1777614091 | 10° C | 85% | 1014.8 hPa | 0 mm | - | - | - |
| 1777613491 | 10° C | 85% | 1014.8 hPa | 0 mm | - | - | - |
| 1777612892 | 10° C | 84% | 1014.8 hPa | 0 mm | - | - | - |
| 1777612292 | 10° C | 83% | 1014.9 hPa | 0 mm | - | - | - |
| 1777611691 | 10° C | 83% | 1015 hPa | 0 mm | - | - | - |
| 1777611091 | 10° C | 83% | 1015 hPa | 0 mm | - | - | - |
| 1777610492 | 10.56° C | 80% | 1015.3 hPa | 0.25 mm | - | - | - |
| 1777609891 | 10.56° C | 80% | 1015.1 hPa | 0 mm | - | - | - |
| 1777609292 | 10.56° C | 78% | 1015 hPa | 0.25 mm | - | - | - |
| 1777608692 | 11.11° C | 73% | 1014.9 hPa | 0 mm | - | - | - |
| 1777608092 | 11.11° C | 72% | 1014.9 hPa | 0 mm | - | - | - |
| 1777607492 | 11.11° C | 73% | 1014.9 hPa | 0 mm | - | - | - |
| 1777606891 | 11.67° C | 73% | 1015.2 hPa | 0 mm | - | - | - |
| 1777606292 | 11.67° C | 74% | 1015.2 hPa | 0 mm | - | - | - |
| 1777605691 | 11.67° C | 74% | 1015.3 hPa | 0 mm | - | - | - |
| 1777605091 | 12.22° C | 75% | 1015.3 hPa | 0 mm | - | - | - |
| 1777604491 | 12.22° C | 69% | 1015.3 hPa | 0 mm | - | - | - |
| 1777603891 | 12.22° C | 72% | 1015.1 hPa | 0 mm | - | - | - |
| 1777602691 | 12.22° C | 72% | 1015 hPa | 0 mm | - | - | - |
| 1777602092 | 12.22° C | 70% | 1015 hPa | 0 mm | - | - | - |
| 1777600891 | 12.78° C | 66% | 1014.7 hPa | 0 mm | - | - | - |
* Rain latest hour (hover to see other rain measurements)
** Current wind speed in m/s (hover to see current wind gust speed)